| time (UTC) | temp C | wind direction | speed KPH | gust KPH | rain 1hr cm | rain 24hr cm | rain mn cm | humidity % | barometer mb |
| 20260508100604 | 13 | 0.0 | 0.0 | 0.00 | 0.00 | 0.00 | 88 | 1007.9 | |
| 20260508095628 | 13 | 0.0 | 0.0 | 0.00 | 0.00 | 0.00 | 88 | 1007.8 | |
| 20260508094605 | 13 | 0.0 | 0.0 | 0.00 | 0.00 | 0.00 | 89 | 1008.0 | |
| 20260508093629 | 13 | 0.0 | 0.0 | 0.00 | 0.00 | 0.00 | 89 | 1007.8 | |
| 20260508092604 | 13 | 0.0 | 0.0 | 0.00 | 0.00 | 0.00 | 89 | 1007.8 | |
| 20260508091628 | 13 | 0.0 | 0.0 | 0.00 | 0.00 | 0.00 | 89 | 1007.4 | |
| 20260508090604 | 14 | 0.0 | 0.0 | 0.00 | 0.00 | 0.00 | 87 | 1007.5 | |
| 20260508085628 | 14 | 0.0 | 0.0 | 0.00 | 0.00 | 0.00 | 87 | 1007.2 | |
| 20260508084604 | 14 | 0.0 | 0.0 | 0.00 | 0.00 | 0.00 | 87 | 1007.0 | |
| 20260508083628 | 15 | 0.0 | 0.0 | 0.00 | 0.00 | 0.00 | 84 | 1006.7 | |
| 20260508081628 | 15 | 0.0 | 0.0 | 0.00 | 0.00 | 0.00 | 81 | 1006.5 | |
| 20260508080652 | 15 | 0.0 | 0.0 | 0.00 | 0.00 | 0.00 | 79 | 1006.2 | |
| 20260508075629 | 15 | 0.0 | 0.0 | 0.00 | 0.00 | 0.00 | 80 | 1006.1 | |
| 20260508074652 | 15 | 0.0 | 0.0 | 0.00 | 0.00 | 0.00 | 81 | 1005.8 | |
| 20260508073628 | 14 | 0.0 | 0.0 | 0.00 | 0.00 | 0.00 | 84 | 1005.8 | |
| 20260508072604 | 13 | 0.0 | 0.0 | 0.00 | 0.00 | 0.00 | 87 | 1005.7 | |
| 20260508071628 | 13 | 0.0 | 0.0 | 0.00 | 0.00 | 0.00 | 87 | 1005.6 | |
| 20260508070604 | 13 | 0.0 | 0.0 | 0.00 | 0.00 | 0.00 | 88 | 1005.6 | |
| 20260508065629 | 12 | 0.0 | 0.0 | 0.00 | 0.00 | 0.00 | 89 | 1005.7 | |
| 20260508064604 | 12 | 0.0 | 0.0 | 0.00 | 0.00 | 0.00 | 90 | 1005.6 | |
| 20260508063628 | 12 | 0.0 | 0.0 | 0.00 | 0.00 | 0.00 | 91 | 1005.5 | |
| 20260508062604 | 12 | 0.0 | 0.0 | 0.00 | 0.00 | 0.00 | 91 | 1005.8 | |
| 20260508061628 | 12 | 0.0 | 0.0 | 0.00 | 0.00 | 0.00 | 91 | 1005.9 | |
| 20260508060605 | 12 | 0.0 | 0.0 | 0.00 | 0.00 | 0.00 | 91 | 1005.9 | |
| 20260508055628 | 12 | 0.0 | 0.0 | 0.00 | 0.00 | 0.00 | 91 | 1005.8 | |
| 20260508054605 | 12 | 0.0 | 0.0 | 0.00 | 0.00 | 0.00 | 92 | 1005.9 | |
| 20260508053628 | 12 | 0.0 | 0.0 | 0.00 | 0.00 | 0.00 | 91 | 1005.8 | |
| 20260508052605 | 12 | 0.0 | 0.0 | 0.00 | 0.00 | 0.00 | 92 | 1005.9 | |
| 20260508051629 | 12 | 0.0 | 0.0 | 0.00 | 0.00 | 0.00 | 92 | 1005.7 | |
| 20260508050604 | 12 | 0.0 | 0.0 | 0.00 | 0.00 | 0.00 | 92 | 1005.8 | |
| 20260508045628 | 12 | 0.0 | 0.0 | 0.00 | 0.00 | 0.00 | 92 | 1005.3 | |
| 20260508044604 | 12 | 0.0 | 0.0 | 0.00 | 0.00 | 0.00 | 92 | 1005.7 | |
| 20260508043628 | 12 | 0.0 | 0.0 | 0.00 | 0.00 | 0.00 | 93 | 1005.9 | |
| 20260508042653 | 12 | 0.0 | 0.0 | 0.00 | 0.00 | 0.00 | 92 | 1005.8 | |
| 20260508041628 | 12 | 0.0 | 0.0 | 0.00 | 0.00 | 0.00 | 92 | 1005.7 | |
| 20260508040605 | 12 | 0.0 | 0.0 | 0.00 | 0.00 | 0.00 | 93 | 1005.9 | |
| 20260508035628 | 11 | 0.0 | 0.0 | 0.00 | 0.00 | 0.00 | 93 | 1006.1 | |
| 20260508034604 | 11 | 0.0 | 0.0 | 0.00 | 0.00 | 0.00 | 93 | 1006.3 | |
| 20260508033628 | 12 | 0.0 | 0.0 | 0.00 | 0.00 | 0.00 | 93 | 1006.5 | |
| 20260508032604 | 12 | 0.0 | 0.0 | 0.00 | 0.00 | 0.00 | 93 | 1006.5 | |
| 20260508031628 | 12 | 0.0 | 0.0 | 0.00 | 0.00 | 0.00 | 93 | 1006.6 | |
| 20260508030604 | 12 | 0.0 | 0.0 | 0.00 | 0.00 | 0.00 | 93 | 1006.8 | |
| 20260508025628 | 12 | 0.0 | 0.0 | 0.00 | 0.00 | 0.00 | 93 | 1006.7 | |
| 20260508024605 | 12 | 0.0 | 0.0 | 0.00 | 0.00 | 0.00 | 93 | 1006.7 | |
| 20260508023628 | 12 | 0.0 | 0.0 | 0.00 | 0.00 | 0.00 | 93 | 1006.8 | |
| 20260508022604 | 12 | 0.0 | 0.0 | 0.00 | 0.00 | 0.00 | 93 | 1006.9 | |
| 20260508021628 | 12 | 0.0 | 0.0 | 0.00 | 0.00 | 0.00 | 93 | 1007.0 | |
| 20260508020652 | 12 | 0.0 | 0.0 | 0.00 | 0.00 | 0.00 | 93 | 1006.9 | |
| 20260508015628 | 12 | 0.0 | 0.0 | 0.00 | 0.00 | 0.00 | 93 | 1006.9 | |
| 20260508014604 | 12 | 0.0 | 0.0 | 0.00 | 0.00 | 0.00 | 93 | 1007.2 | |
| 20260508013628 | 12 | 0.0 | 0.0 | 0.00 | 0.00 | 0.00 | 93 | 1007.2 | |
| 20260508012604 | 12 | 0.0 | 0.0 | 0.00 | 0.00 | 0.00 | 93 | 1007.4 | |
| 20260508011628 | 12 | 0.0 | 0.0 | 0.00 | 0.00 | 0.00 | 93 | 1007.4 | |
| 20260508010652 | 12 | 0.0 | 0.0 | 0.00 | 0.00 | 0.00 | 93 | 1007.5 | |
| 20260508005628 | 12 | 0.0 | 0.0 | 0.00 | 0.00 | 0.00 | 93 | 1007.7 | |
| 20260508004605 | 12 | 0.0 | 0.0 | 0.00 | 0.00 | 0.00 | 93 | 1007.7 | |
| 20260508003629 | 12 | 0.0 | 0.0 | 0.00 | 0.00 | 0.00 | 93 | 1007.4 | |
| 20260508002604 | 13 | 0.0 | 0.0 | 0.00 | 0.00 | 0.00 | 93 | 1007.8 | |
| 20260508001628 | 13 | 0.0 | 0.0 | 0.00 | 0.00 | 0.00 | 93 | 1007.8 | |
| 20260508000652 | 13 | 0.0 | 0.0 | 0.00 | 0.00 | 0.00 | 92 | 1007.9 | |
| 20260507235628 | 13 | 0.0 | 0.0 | 0.00 | 0.00 | 0.00 | 92 | 1007.7 | |
| 20260507234604 | 13 | 0.0 | 0.0 | 0.00 | 0.00 | 0.00 | 91 | 1008.1 | |
| 20260507233628 | 12 | 0.0 | 0.0 | 0.00 | 0.00 | 0.00 | 91 | 1008.4 | |
| 20260507232606 | 13 | 0.0 | 0.0 | 0.00 | 0.00 | 0.00 | 91 | 1008.3 | |
| 20260507231628 | 12 | 0.0 | 0.0 | 0.00 | 0.00 | 0.00 | 91 | 1008.6 | |
| 20260507230604 | 12 | 0.0 | 0.0 | 0.00 | 0.00 | 0.00 | 91 | 1008.5 | |
| 20260507225629 | 12 | 0.0 | 0.0 | 0.00 | 0.00 | 0.00 | 91 | 1008.4 | |
| 20260507224604 | 12 | 0.0 | 0.0 | 0.00 | 0.00 | 0.00 | 91 | 1008.5 | |
| 20260507223628 | 13 | 0.0 | 0.0 | 0.00 | 0.00 | 0.00 | 92 | 1008.4 | |
| 20260507222604 | 13 | 0.0 | 0.0 | 0.00 | 0.00 | 0.00 | 91 | 1008.1 | |
| 20260507221628 | 13 | 0.0 | 0.0 | 0.00 | 0.00 | 0.00 | 91 | 1008.1 | |
| 20260507220604 | 13 | 0.0 | 0.0 | 0.00 | 0.00 | 0.00 | 91 | 1008.4 | |
| 20260507215628 | 13 | 0.0 | 0.0 | 0.00 | 0.00 | 0.00 | 91 | 1008.6 | |
| 20260507214605 | 13 | 0.0 | 0.0 | 0.00 | 0.00 | 0.00 | 91 | 1008.4 | |
| 20260507213628 | 13 | 0.0 | 0.0 | 0.00 | 0.00 | 0.00 | 90 | 1008.6 | |
| 20260507212652 | 13 | 0.0 | 0.0 | 0.00 | 0.00 | 0.00 | 90 | 1008.5 | |
| 20260507211628 | 13 | 0.0 | 0.0 | 0.00 | 0.00 | 0.00 | 90 | 1008.8 | |
| 20260507210605 | 14 | 0.0 | 0.0 | 0.00 | 0.00 | 0.00 | 89 | 1008.9 | |
| 20260507205629 | 14 | 0.0 | 0.0 | 0.00 | 0.00 | 0.00 | 89 | 1008.6 | |
| 20260507204652 | 14 | 0.0 | 0.0 | 0.00 | 0.00 | 0.00 | 89 | 1008.5 | |
| 20260507203629 | 15 | 0.0 | 0.0 | 0.00 | 0.00 | 0.00 | 88 | 1008.5 | |
| 20260507202605 | 15 | 0.0 | 0.0 | 0.00 | 0.00 | 0.00 | 88 | 1008.4 | |
| 20260507201628 | 15 | 0.0 | 0.0 | 0.00 | 0.03 | 0.00 | 87 | 1008.2 | |
| 20260507200604 | 15 | 0.0 | 0.0 | 0.00 | 0.03 | 0.00 | 86 | 1008.2 | |
| 20260507195628 | 15 | 0.0 | 0.0 | 0.00 | 0.03 | 0.00 | 86 | 1008.4 | |
| 20260507194604 | 15 | 0.0 | 0.0 | 0.00 | 0.05 | 0.00 | 85 | 1008.1 | |
| 20260507193629 | 15 | 0.0 | 0.0 | 0.00 | 0.05 | 0.00 | 85 | 1008.2 | |
| 20260507192604 | 15 | 0.0 | 0.0 | 0.00 | 0.05 | 0.00 | 84 | 1007.9 | |
| 20260507191628 | 15 | 0.0 | 0.0 | 0.00 | 0.05 | 0.00 | 85 | 1007.8 | |
| 20260507190604 | 15 | 0.0 | 0.0 | 0.00 | 0.05 | 0.00 | 84 | 1008.0 | |
| 20260507185628 | 16 | 0.0 | 0.0 | 0.00 | 0.08 | 0.00 | 83 | 1007.8 | |
| 20260507184604 | 16 | 0.0 | 0.0 | 0.00 | 0.08 | 0.00 | 83 | 1007.4 | |
| 20260507183628 | 16 | 0.0 | 0.0 | 0.00 | 0.08 | 0.00 | 83 | 1007.5 | |
| 20260507182605 | 16 | 0.0 | 0.0 | 0.00 | 0.08 | 0.00 | 82 | 1007.4 | |
| 20260507181628 | 16 | 0.0 | 0.0 | 0.00 | 0.08 | 0.00 | 82 | 1007.6 | |
| 20260507180604 | 16 | 0.0 | 0.0 | 0.00 | 0.08 | 0.00 | 81 | 1007.8 | |
| 20260507175629 | 16 | 0.0 | 0.0 | 0.00 | 0.08 | 0.00 | 80 | 1007.5 | |
| 20260507174605 | 16 | 0.0 | 0.0 | 0.00 | 0.08 | 0.00 | 80 | 1007.8 | |
| 20260507173628 | 16 | 0.0 | 0.0 | 0.00 | 0.08 | 0.00 | 79 | 1007.8 | |
| 20260507172604 | 16 | 0.0 | 0.0 | 0.00 | 0.08 | 0.00 | 79 | 1007.9 | |
| 20260507171628 | 16 | 0.0 | 0.0 | 0.00 | 0.08 | 0.00 | 79 | 1008.0 | |
| 20260507170604 | 16 | 0.0 | 0.0 | 0.00 | 0.08 | 0.00 | 80 | 1007.7 | |
| 20260507165628 | 16 | 0.0 | 0.0 | 0.00 | 0.08 | 0.00 | 79 | 1007.7 | |
| 20260507164604 | 16 | 0.0 | 0.0 | 0.00 | 0.08 | 0.00 | 78 | 1007.6 | |
| 20260507163629 | 16 | 0.0 | 0.0 | 0.00 | 0.08 | 0.00 | 77 | 1007.4 | |
| 20260507162604 | 16 | 0.0 | 0.0 | 0.00 | 0.08 | 0.00 | 76 | 1007.5 | |
| 20260507161629 | 16 | 0.0 | 0.0 | 0.00 | 0.08 | 0.00 | 76 | 1007.3 | |
| 20260507160604 | 16 | 0.0 | 0.0 | 0.00 | 0.08 | 0.00 | 75 | 1007.4 | |
| 20260507155628 | 17 | 0.0 | 0.0 | 0.00 | 0.08 | 0.00 | 71 | 1007.2 | |
| 20260507154604 | 17 | 0.0 | 0.0 | 0.00 | 0.08 | 0.00 | 70 | 1007.1 | |
| 20260507153628 | 17 | 0.0 | 0.0 | 0.00 | 0.08 | 0.00 | 72 | 1007.1 | |
| 20260507152605 | 17 | 0.0 | 0.0 | 0.00 | 0.08 | 0.00 | 72 | 1007.1 | |
| 20260507151629 | 17 | 0.0 | 0.0 | 0.00 | 0.08 | 0.00 | 72 | 1007.2 | |
| 20260507150604 | 17 | 0.0 | 0.0 | 0.00 | 0.08 | 0.00 | 70 | 1007.3 | |
| 20260507145629 | 17 | 0.0 | 0.0 | 0.00 | 0.08 | 0.00 | 67 | 1007.6 | |
| 20260507144605 | 17 | 0.0 | 0.0 | 0.00 | 0.08 | 0.00 | 67 | 1007.6 | |
| 20260507143628 | 17 | 0.0 | 0.0 | 0.00 | 0.08 | 0.00 | 69 | 1007.6 | |
| 20260507142605 | 18 | 0.0 | 0.0 | 0.00 | 0.08 | 0.00 | 67 | 1007.1 | |
| 20260507141628 | 17 | 0.0 | 0.0 | 0.00 | 0.08 | 0.00 | 67 | 1007.5 | |
| 20260507140604 | 18 | 0.0 | 0.0 | 0.00 | 0.08 | 0.00 | 65 | 1007.5 | |
| 20260507135628 | 17 | 0.0 | 0.0 | 0.00 | 0.08 | 0.00 | 66 | 1007.6 | |
| 20260507134604 | 18 | 0.0 | 0.0 | 0.00 | 0.08 | 0.00 | 66 | 1007.5 | |
| 20260507133628 | 18 | 0.0 | 0.0 | 0.00 | 0.08 | 0.00 | 66 | 1007.8 | |
| 20260507132604 | 17 | 0.0 | 0.0 | 0.00 | 0.08 | 0.00 | 70 | 1007.7 | |
| 20260507131629 | 17 | 0.0 | 0.0 | 0.00 | 0.08 | 0.00 | 71 | 1007.5 | |
| 20260507130605 | 17 | 0.0 | 0.0 | 0.00 | 0.08 | 0.00 | 69 | 1007.6 | |
| 20260507125628 | 17 | 0.0 | 0.0 | 0.00 | 0.08 | 0.00 | 68 | 1008.0 | |
| 20260507124604 | 17 | 0.0 | 0.0 | 0.00 | 0.08 | 0.00 | 68 | 1008.2 | |
| 20260507123628 | 17 | 0.0 | 0.0 | 0.00 | 0.08 | 0.00 | 67 | 1008.3 | |
| 20260507122605 | 17 | 0.0 | 0.0 | 0.00 | 0.08 | 0.00 | 68 | 1008.3 | |
| 20260507121629 | 17 | 0.0 | 0.0 | 0.00 | 0.08 | 0.00 | 68 | 1008.5 | |
| 20260507120605 | 17 | 0.0 | 0.0 | 0.00 | 0.08 | 0.00 | 70 | 1008.7 | |
| 20260507115629 | 17 | 0.0 | 0.0 | 0.00 | 0.08 | 0.00 | 70 | 1008.9 | |
| 20260507114605 | 17 | 112 | 3.2 | 9.7 | 0.00 | 0.08 | 0.00 | 69 | 1009.0 |
| 20260507113629 | 17 | 157 | 3.2 | 9.7 | 0.00 | 0.08 | 0.00 | 69 | 1008.6 |
| 20260507112604 | 17 | 90 | 9.7 | 14.5 | 0.00 | 0.08 | 0.00 | 73 | 1008.9 |
| 20260507111628 | 17 | 247 | 0.0 | 4.8 | 0.00 | 0.08 | 0.00 | 74 | 1008.9 |
| 20260507110604 | 17 | 22 | 4.8 | 16.1 | 0.00 | 0.08 | 0.00 | 72 | 1008.9 |
| 20260507105312 | 17 | 0 | 6.4 | 14.5 | 0.00 | 0.08 | 0.00 | 74 | 1009.0 |
| 20260507104117 | 17 | 157 | 4.8 | 9.7 | 0.00 | 0.08 | 0.00 | 74 | 1009.1 |
| 20260507103140 | 17 | 135 | 1.6 | 3.2 | 0.00 | 0.08 | 0.00 | 70 | 1009.2 |
| 20260507102117 | 17 | 67 | 3.2 | 4.8 | 0.00 | 0.08 | 0.00 | 72 | 1009.3 |
| 20260507101141 | 16 | 67 | 0.0 | 1.6 | 0.00 | 0.08 | 0.00 | 72 | 1009.2 |